Plattsmouth, NE

7:02 AM CDT on October 19, 2017 (GMT -0500)
Plattsmouth Municipal

Weather History for KPMV - December, 2013

Change the Weather History Date:

Monday, December 23, 2013

  Actual Average (KOFF) Record (KOFF)
Temperature  
Mean Temperature 5 °F -  
Max Temperature 10 °F 32 °F 46 °F (2005)
Min Temperature 0 °F 15 °F -8 °F (2013)
Degree Days  
Heating Degree Days 60    
Moisture  
Dew Point -5 °F    
Average Humidity 62    
Maximum Humidity 75    
Minimum Humidity 48    
Precipitation  
Precipitation 0.00 in - - ()
Sea Level Pressure  
Sea Level Pressure 30.51 in    
Wind  
Wind Speed 11 mph (NW)    
Max Wind Speed 18 mph    
Max Gust Speed 24 mph    
Visibility 10 miles    
Events Snow    
Averages and records for this station are not official NWS values.
T = Trace of Precipitation, MM = Missing Value Source: NWS Daily Summary

Daily Weather History Graph

Daily Weather History Graph

Search for Another Location

Airport or City:

Trip Planner

Search our weather history database for the weather conditions in past years. The results will help you decide how hot, cold, wet, or windy it might be!

Date:

Astronomy

Dec. 23, 2013 Rise Set
Actual Time 7:46 AM CST 4:59 PM CST
Civil Twilight 7:14 AM CST 5:31 PM CST
Nautical Twilight 6:40 AM CST 6:05 PM CST
Astronomical Twilight 6:06 AM CST 6:39 PM CST
Moon 11:13 PM CST (12/23) 11:09 AM CST (12/23)
Length of Visible Light 10h 16m
Length of Day
9h 13m
Waning Gibbous, 68% of the Moon is Illuminated
Dec 23
Waning Gibbous
Dec 25
Last Quarter
Jan 1
New
Jan 7
First Quarter
Jan 15
Full

Hourly Weather History & Observations

Time (CST) Temp. Windchill Dew Point Humidity Pressure Visibility Wind Dir Wind Speed Gust Speed Precip Events Conditions
12:15 AM 9.5 °F -6.6 °F 1.9 °F 71% 30.37 in 10.0 mi NNW 13.8 mph - N/A   Mostly Cloudy
12:35 AM 9.5 °F -7.2 °F 1.4 °F 70% 30.37 in 10.0 mi NNW 15.0 mph - N/A   Overcast
12:55 AM 8.8 °F -5.3 °F 1.4 °F 72% 30.37 in 10.0 mi NNW 10.4 mph - N/A   Overcast
1:15 AM 8.4 °F -7.3 °F 1.0 °F 72% 30.38 in 10.0 mi NNW 12.7 mph - N/A   Overcast
1:35 AM 7.9 °F -8.6 °F 0.1 °F 71% 30.39 in 10.0 mi NNW 13.8 mph - N/A   Overcast
1:55 AM 7.5 °F -9.7 °F 0.1 °F 72% 30.41 in 10.0 mi NW 15.0 mph 18.4 mph N/A   Overcast
2:15 AM 6.8 °F -9.3 °F -0.6 °F 72% 30.41 in 10.0 mi NNW 12.7 mph - N/A   Overcast
2:35 AM 6.6 °F -10.2 °F -0.6 °F 72% 30.41 in 10.0 mi NW 13.8 mph - N/A   Overcast
2:55 AM 5.9 °F -11.8 °F -1.5 °F 72% 30.43 in 10.0 mi NW 15.0 mph - N/A   Overcast
3:15 AM 5.9 °F -13.5 °F -2.0 °F 70% 30.43 in 10.0 mi NW 18.4 mph 24.2 mph N/A   Mostly Cloudy
3:35 AM 5.4 °F -14.2 °F -2.0 °F 72% 30.44 in 10.0 mi NW 18.4 mph - N/A   Mostly Cloudy
3:55 AM 5.0 °F -13.0 °F -2.0 °F 73% 30.45 in 10.0 mi NW 15.0 mph - N/A   Mostly Cloudy
4:15 AM 5.0 °F -12.3 °F -1.8 °F 73% 30.45 in 10.0 mi NW 13.8 mph - N/A   Overcast
4:35 AM 5.2 °F -12.1 °F -1.5 °F 74% 30.45 in 10.0 mi NW 13.8 mph - N/A   Overcast
4:55 AM 5.5 °F -11.6 °F -1.3 °F 73% 30.46 in 10.0 mi NW 13.8 mph - N/A   Overcast
5:15 AM 5.7 °F -9.9 °F -1.1 °F 73% 30.46 in 7.0 mi NW 11.5 mph - N/A Snow Light Snow
5:35 AM 6.1 °F -12.8 °F -0.9 °F 73% 30.47 in 5.0 mi NW 17.3 mph - N/A Snow Light Snow
5:55 AM 5.9 °F -11.2 °F -1.5 °F 72% 30.48 in 10.0 mi NNW 13.8 mph - N/A   Overcast
6:15 AM 5.7 °F -12.0 °F -2.0 °F 70% 30.49 in 10.0 mi NW 15.0 mph 19.6 mph N/A   Overcast
6:35 AM 5.7 °F -11.4 °F -2.2 °F 70% 30.50 in 10.0 mi NW 13.8 mph - N/A   Overcast
6:55 AM 5.7 °F -11.4 °F -2.2 °F 70% 30.50 in 10.0 mi NW 13.8 mph - N/A   Overcast
7:15 AM 5.0 °F -13.0 °F -3.3 °F 69% 30.51 in 10.0 mi NNW 15.0 mph 19.6 mph N/A   Overcast
7:35 AM 5.0 °F -10.0 °F -3.5 °F 68% 30.52 in 10.0 mi NW 10.4 mph - N/A   Overcast
7:55 AM 5.0 °F -8.1 °F -2.7 °F 70% 30.53 in 10.0 mi NW 8.1 mph - N/A   Overcast
8:15 AM 3.7 °F -9.6 °F -3.6 °F 71% 30.54 in 10.0 mi NW 8.1 mph - N/A   Scattered Clouds
8:35 AM 3.2 °F -10.3 °F -4.9 °F 69% 30.55 in 10.0 mi NW 8.1 mph - N/A   Clear
8:55 AM 3.2 °F -10.3 °F -5.3 °F 68% 30.56 in 10.0 mi WNW 8.1 mph - N/A   Clear
9:15 AM 3.2 °F -13.1 °F -6.0 °F 66% 30.57 in 10.0 mi WNW 11.5 mph - N/A   Clear
9:35 AM 3.6 °F -13.4 °F -6.0 °F 65% 30.57 in 10.0 mi WNW 12.7 mph - N/A   Clear
9:55 AM 3.6 °F -15.4 °F -6.5 °F 63% 30.57 in 10.0 mi NW 16.1 mph - N/A   Clear
10:15 AM 4.1 °F -14.1 °F -5.8 °F 64% 30.58 in 10.0 mi WNW 15.0 mph 20.7 mph N/A   Clear
10:35 AM 4.8 °F -13.2 °F -5.8 °F 62% 30.59 in 10.0 mi NW 15.0 mph - N/A   Clear
10:55 AM 5.4 °F -13.1 °F -5.6 °F 61% 30.59 in 10.0 mi NW 16.1 mph - N/A   Clear
11:15 AM 5.9 °F -10.5 °F -5.1 °F 61% 30.58 in 10.0 mi WNW 12.7 mph - N/A   Clear
11:35 AM 7.0 °F -9.1 °F -4.4 °F 60% 30.58 in 10.0 mi NW 12.7 mph - N/A   Clear
11:55 AM 7.3 °F -8.6 °F -5.1 °F 57% 30.57 in 10.0 mi NW 12.7 mph - N/A   Clear
12:15 PM 7.7 °F -7.4 °F -4.7 °F 57% 30.56 in 10.0 mi NW 11.5 mph - N/A   Clear
12:35 PM 9.0 °F -5.9 °F -4.4 °F 55% 30.56 in 10.0 mi NW 11.5 mph 17.3 mph N/A   Clear
12:55 PM 9.5 °F -3.5 °F -4.5 °F 53% 30.55 in 10.0 mi NW 9.2 mph - N/A   Clear
1:15 PM 9.9 °F -4.0 °F -5.4 °F 50% 30.55 in 10.0 mi NW 10.4 mph - N/A   Clear
1:35 PM 10.0 °F -3.7 °F -5.1 °F 51% 30.54 in 10.0 mi WNW 10.4 mph - N/A   Clear
1:55 PM 10.4 °F -1.5 °F -4.5 °F 51% 30.54 in 10.0 mi NW 8.1 mph - N/A   Clear
2:15 PM 10.9 °F -2.6 °F -4.2 °F 51% 30.53 in 10.0 mi NW 10.4 mph - N/A   Clear
2:35 PM 10.9 °F -1.8 °F -5.1 °F 49% 30.53 in 10.0 mi NW 9.2 mph - N/A   Clear
2:55 PM 10.9 °F 0.2 °F -5.4 °F 48% 30.53 in 10.0 mi NW 6.9 mph - N/A   Clear
3:15 PM 10.9 °F 0.2 °F -5.4 °F 48% 30.53 in 10.0 mi NW 6.9 mph - N/A   Clear
3:35 PM 10.9 °F -0.8 °F -5.4 °F 48% 30.53 in 10.0 mi WNW 8.1 mph - N/A   Clear
3:55 PM 10.8 °F 1.2 °F -5.3 °F 49% 30.54 in 10.0 mi WNW 5.8 mph - N/A   Clear
4:15 PM 10.0 °F 1.8 °F -5.4 °F 50% 30.54 in 10.0 mi WNW 4.6 mph - N/A   Clear
4:35 PM 8.6 °F 0.1 °F -5.8 °F 52% 30.54 in 10.0 mi WNW 4.6 mph - N/A   Clear
4:55 PM 6.8 °F -0.1 °F -6.5 °F 55% 30.54 in 10.0 mi WNW 3.5 mph - N/A   Clear
5:15 PM 5.7 °F -3.2 °F -7.6 °F 54% 30.54 in 10.0 mi WNW 4.6 mph - N/A   Clear
5:35 PM 5.9 °F -3.0 °F -7.8 °F 53% 30.54 in 10.0 mi WNW 4.6 mph - N/A   Clear
5:55 PM 5.5 °F -3.4 °F -7.6 °F 55% 30.53 in 10.0 mi NW 4.6 mph - N/A   Clear
6:15 PM 5.2 °F - -7.8 °F 55% 30.53 in 10.0 mi Calm Calm - N/A   Clear
6:35 PM 5.0 °F - -7.6 °F 56% 30.54 in 10.0 mi Calm Calm - N/A   Clear
6:55 PM 5.0 °F - -8.3 °F 54% 30.54 in 10.0 mi Calm Calm - N/A   Clear
7:15 PM 5.4 °F - -8.0 °F 54% 30.55 in 10.0 mi Calm Calm - N/A   Clear
7:35 PM 5.7 °F - -8.0 °F 53% 30.55 in 10.0 mi Calm Calm - N/A   Clear
7:55 PM 4.8 °F - -8.7 °F 54% 30.55 in 10.0 mi Calm Calm - N/A   Clear
8:15 PM 5.4 °F - -8.5 °F 53% 30.56 in 10.0 mi Calm Calm - N/A   Clear
8:35 PM 4.8 °F - -8.0 °F 56% 30.56 in 10.0 mi Calm Calm - N/A   Clear
8:55 PM 4.6 °F - -8.0 °F 56% 30.55 in 10.0 mi Calm Calm - N/A   Clear
9:15 PM 5.0 °F - -7.8 °F 56% 30.55 in 10.0 mi Calm Calm - N/A   Clear
9:35 PM 4.1 °F - -7.8 °F 58% 30.55 in 10.0 mi Calm Calm - N/A   Clear
9:55 PM 0.5 °F -9.3 °F -9.0 °F 64% 30.54 in 10.0 mi SE 4.6 mph - N/A   Clear
10:15 PM 2.1 °F -5.4 °F -8.0 °F 63% 30.54 in 10.0 mi SSE 3.5 mph - N/A   Clear
10:35 PM 3.0 °F -4.4 °F -7.8 °F 61% 30.54 in 10.0 mi SSE 3.5 mph - N/A   Scattered Clouds
10:55 PM 1.0 °F -8.7 °F -8.7 °F 64% 30.54 in 10.0 mi SE 4.6 mph - N/A   Clear
11:15 PM -0.0 °F -7.9 °F -8.7 °F 67% 30.53 in 10.0 mi SE 3.5 mph - N/A   Clear
11:35 PM -0.6 °F -10.6 °F -8.1 °F 70% 30.53 in 10.0 mi SE 4.6 mph - N/A   Clear
11:55 PM -0.9 °F -11.0 °F -7.1 °F 75% 30.53 in 10.0 mi SE 4.6 mph - N/A   Clear